#timestamp,LO_Frequency,Hit,StdDev 
1514437215.3,286047001.0,N
1514437235.1,286047002.2,N
1514437255.8,286047001.6,N
1514437275.7,286047000.1,N
1514437295.5,286047000.9,N
1514437315.4,286047000.4,N
1514437335.2,286047001.6,N
1514437355.0,286047003.1,N
1514437355.9,286047003.1,N
1514437375.8,286047003.3,N
1514437395.6,286047003.0,N
1514437415.5,286047003.8,Y
1514437435.3,286046999.7,P
1514437455.1,286047001.8,N
1514437475.9,286047001.3,N
1514437495.7,286047003.2,Y
1514437515.6,286047002.6,P
1514437535.4,286047002.3,P
1514437555.2,286047002.7,P
1514437575.1,286047002.5,Y
1514437576.0,286047002.5,P
1514437595.8,286046999.2,P
1514437615.6,286046998.0,N
1514437635.5,286046997.4,N
1514437655.3,286046999.5,N
1514437675.2,286046997.1,N
1514437695.9,286046996.7,N
1514437715.7,286046998.5,N
1514437735.6,286047000.6,N
1514437755.4,286046999.6,N
1514437775.3,286046998.8,N
1514437795.1,286046999.4,N
1514437796.0,286046999.4,N
1514437815.8,286046999.2,N
1514437835.7,286046995.6,N
1514437855.5,286046995.1,N
1514437875.4,286046995.5,N
1514437895.2,286046997.5,N
1514437915.0,286047001.1,N
1514437915.9,286047001.1,N
1514437935.8,286047000.2,N
1514437955.6,286047001.2,N
1514437975.4,286047002.3,N
1514437995.3,286047000.8,N
1514438015.1,286047000.3,N
1514438035.9,286046998.6,N
1514438055.7,286047000.8,N
1514438075.5,286047000.3,N
1514438095.4,286046999.9,N
1514438115.2,286047001.3,N
1514438135.1,286047002.2,N
1514438136.0,286047002.2,N
1514438155.8,286047001.0,N
1514438175.6,286046999.9,N
1514438195.5,286047002.8,N
1514438215.3,286047001.4,N
1514438235.1,286047003.6,N
1514438255.9,286047005.6,N
1514438275.7,286047001.7,N
1514438295.6,286047001.8,N
1514438315.4,286047001.3,N
1514438335.2,286047004.4,N
1514438355.1,286047001.8,N
1514438356.0,286047001.8,N
1514438375.8,286047004.4,N
1514438395.6,286047004.4,N
1514438415.5,286047002.1,N
1514438435.3,286047002.5,N
1514438455.2,286047003.7,N
1514438475.9,286047005.6,Y
1514438495.7,286047003.3,P
1514438515.6,286047003.9,P
1514438535.4,286047003.8,P
1514438555.3,286047003.7,Y
1514438575.1,286047000.6,P
1514438576.0,286047000.6,N
1514438595.8,286046998.4,N
1514438615.7,286046998.6,N
1514438635.5,286046999.7,N
1514438655.3,286047002.1,N
1514438675.2,286047002.3,N
1514438695.0,286047004.4,N
1514438695.9,286047004.4,N
1514438715.8,286047002.6,N
1514438735.6,286047002.0,N
1514438755.4,286047002.6,N
1514438775.3,286046999.8,N
1514438795.1,286047001.6,N
1514438815.9,286047001.9,N
1514438835.7,286047001.6,N
1514438855.5,286047002.0,N
1514438875.4,286047001.5,N
1514438895.2,286047002.1,N
1514438915.0,286047001.7,N
1514438915.9,286047001.7,N
1514438935.8,286047001.8,N
1514438955.6,286047003.7,N
1514438975.5,286047002.0,N
1514438995.3,286047001.6,N
1514439015.1,286047002.6,N
1514439035.9,286047002.2,N
1514439055.7,286047002.5,N
1514439075.6,286047004.4,Y
1514439095.4,286047004.2,P
1514439115.2,286047004.2,P
1514439135.1,286047003.7,P
1514439136.0,286047003.7,Y
1514439155.8,286047000.6,P
1514439175.7,286046998.6,N
1514439195.5,286046996.9,N
1514439215.3,286046996.8,N
1514439235.2,286047000.8,N
1514439255.9,286046998.7,N
1514439275.7,286046996.5,N
1514439295.6,286046999.2,N
1514439315.4,286046998.4,N
1514439335.3,286046998.1,N
1514439355.1,286046996.5,N
1514439356.0,286046996.5,N
1514439375.8,286046997.0,N
1514439395.7,286046998.4,N
1514439415.5,286047001.1,N
1514439435.3,286047000.3,N
1514439455.2,286047003.1,N
1514439475.0,286047003.6,N
1514439475.9,286047003.6,N
1514439495.8,286047001.7,N
1514439515.6,286047003.9,N
1514439535.4,286047004.3,N
1514439555.3,286047004.2,N
1514439575.1,286047002.0,N
1514439595.9,286047003.7,N
1514439615.7,286047003.8,N
1514439635.5,286047002.2,N
1514439655.4,286047004.4,N
1514439675.2,286047001.9,N
1514439695.0,286047001.6,N
1514439696.0,286047001.6,N
1514439715.8,286047001.4,N
1514439735.6,286047005.8,N
1514439755.5,286047007.2,N
1514439775.3,286047006.3,N
1514439795.1,286047009.1,Y
1514439815.9,286047003.4,P
1514439835.7,286047005.5,P
1514439855.6,286047005.2,P
1514439875.4,286047005.9,Y
1514439895.2,286047002.7,P
1514439915.1,286046999.7,N
1514439916.0,286046999.7,N
1514439935.8,286046999.7,N
1514439955.7,286047003.2,N
1514439975.5,286047003.4,N
1514439995.3,286047001.3,N
1514440015.2,286047001.3,N
1514440035.0,286047002.5,N
1514440035.9,286047002.5,N
1514440055.8,286047003.8,N
1514440075.6,286047003.0,N
1514440095.4,286047003.2,N
1514440115.3,286047004.8,Y
1514440135.1,286047003.8,P
1514440155.9,286047004.2,P
1514440175.7,286047005.7,P
1514440195.5,286047005.5,Y
1514440215.4,286047000.2,P
1514440235.2,286047002.4,N
1514440255.0,286046998.7,N
1514440255.9,286046998.7,N
1514440275.8,286047000.8,N
1514440295.6,286047001.5,N
1514440315.5,286047003.0,N
1514440335.3,286047005.0,N
1514440355.1,286047006.0,N
1514440375.9,286047004.8,N
1514440395.7,286047005.3,N
1514440415.6,286047001.5,N
1514440435.4,286047001.8,N
1514440455.2,286047002.3,N
1514440475.1,286047002.7,N
1514440476.0,286047002.7,N
1514440495.8,286047004.4,N
1514440515.6,286047003.7,N
1514440535.5,286047005.2,N
1514440555.3,286047004.8,N
1514440575.2,286047005.0,N
1514440595.9,286047005.5,N
1514440615.7,286047002.7,N
1514440635.6,286047001.8,N
1514440655.4,286047001.5,N
1514440675.3,286047002.0,N
1514440695.1,286047001.8,N
1514440696.0,286047001.8,N
1514440715.8,286047002.3,N
1514440735.7,286047001.8,N
1514440755.5,286047000.3,N
1514440775.3,286047003.9,N
1514440795.2,286047005.7,Y
